Time,TemperatureF,DewpointF,PressureIn,WindDirection,WindDirectionDegrees,WindSpeedMPH,WindSpeedGustMPH,Humidity,HourlyPrecipIn,Conditions,Clouds,dailyrainin,SoftwareType,DateUTC
2013-07-28 08:45:00,73.8,0.0,29.89,West,270,0.0,0.0,0,0.00,,,0.00,Weather View 32 v70,2013-07-28 12:45:00,
2013-07-28 08:46:00,73.8,0.0,29.89,West,270,0.0,0.0,0,0.00,,,0.00,Weather View 32 v70,2013-07-28 12:46:00,
2013-07-28 08:50:00,74.1,0.0,29.90,West,270,0.0,0.0,0,0.00,,,0.00,Weather View 32 v70,2013-07-28 12:50:00,
2013-07-28 08:55:00,74.3,0.0,29.88,West,270,2.0,3.0,0,0.00,,,0.00,Weather View 32 v70,2013-07-28 12:55:00,
2013-07-28 09:00:00,74.7,0.0,29.89,West,270,0.0,3.0,0,0.00,,,0.00,Weather View 32 v70,2013-07-28 13:00:00,
2013-07-28 09:05:00,74.8,0.0,29.89,West,270,0.0,3.0,0,0.00,,,0.00,Weather View 32 v70,2013-07-28 13:05:00,
2013-07-28 09:10:00,74.8,0.0,29.92,WNW,293,0.0,3.0,0,0.00,,,0.00,Weather View 32 v70,2013-07-28 13:10:00,
2013-07-28 09:15:00,75.4,0.0,29.88,West,270,0.0,3.0,0,0.00,,,0.00,Weather View 32 v70,2013-07-28 13:15:00,
2013-07-28 09:20:00,76.1,0.0,29.89,West,270,0.0,3.0,0,0.00,,,0.00,Weather View 32 v70,2013-07-28 13:20:00,
2013-07-28 09:25:00,76.3,0.0,29.89,West,270,0.0,3.0,0,0.00,,,0.00,Weather View 32 v70,2013-07-28 13:25:00,
2013-07-28 09:30:00,76.6,0.0,29.91,West,270,0.0,3.0,0,0.00,,,0.00,Weather View 32 v70,2013-07-28 13:30:00,
2013-07-28 09:35:00,77.2,0.0,29.90,West,270,0.0,3.0,0,0.00,,,0.00,Weather View 32 v70,2013-07-28 13:35:00,
2013-07-28 09:40:00,78.1,0.0,29.89,North,0,0.0,3.0,0,0.00,,,0.00,Weather View 32 v70,2013-07-28 13:40:00,
2013-07-28 09:46:00,79.3,0.0,29.94,WNW,293,0.0,5.0,0,0.00,,,0.00,Weather View 32 v70,2013-07-28 13:46:00,
2013-07-28 09:55:00,79.0,0.0,29.89,West,270,0.0,5.0,0,0.00,,,0.00,Weather View 32 v70,2013-07-28 13:55:00,
2013-07-28 10:00:00,79.2,0.0,29.91,West,270,0.0,5.0,0,0.00,,,0.00,Weather View 32 v70,2013-07-28 14:00:00,
2013-07-28 10:05:00,79.2,0.0,29.88,West,270,0.0,5.0,0,0.00,,,0.00,Weather View 32 v70,2013-07-28 14:05:00,
2013-07-28 10:10:00,79.7,0.0,29.90,North,0,3.0,6.0,0,0.00,,,0.00,Weather View 32 v70,2013-07-28 14:10:00,
2013-07-28 10:16:00,81.0,0.0,29.90,North,0,3.0,7.0,0,0.00,,,0.00,Weather View 32 v70,2013-07-28 14:16:00,
2013-07-28 10:25:00,82.4,0.0,29.90,North,0,1.0,8.0,0,0.00,,,0.00,Weather View 32 v70,2013-07-28 14:25:00,
2013-07-28 10:30:00,82.6,0.0,29.89,North,0,1.0,8.0,0,0.00,,,0.00,Weather View 32 v70,2013-07-28 14:30:00,
2013-07-28 10:35:00,82.2,0.0,29.91,West,270,0.0,8.0,0,0.00,,,0.00,Weather View 32 v70,2013-07-28 14:35:00,
2013-07-28 10:40:00,82.8,0.0,29.90,North,0,5.0,8.0,0,0.00,,,0.00,Weather View 32 v70,2013-07-28 14:40:00,
2013-07-28 10:45:00,83.5,0.0,29.91,North,0,2.0,8.0,0,0.00,,,0.00,Weather View 32 v70,2013-07-28 14:45:00,
2013-07-28 10:55:00,85.1,0.0,29.94,North,0,6.0,8.0,0,0.00,,,0.00,Weather View 32 v70,2013-07-28 14:55:00,
2013-07-28 11:00:00,85.6,0.0,29.91,North,0,5.0,8.0,0,0.00,,,0.00,Weather View 32 v70,2013-07-28 15:00:00,
2013-07-28 11:05:00,86.0,0.0,29.91,WNW,293,0.0,8.0,0,0.00,,,0.00,Weather View 32 v70,2013-07-28 15:05:00,
2013-07-28 11:10:00,86.7,0.0,29.92,North,0,2.0,8.0,0,0.00,,,0.00,Weather View 32 v70,2013-07-28 15:10:00,
2013-07-28 11:15:00,88.0,0.0,29.93,East,90,2.0,8.0,0,0.00,,,0.00,Weather View 32 v70,2013-07-28 15:15:00,
2013-07-28 11:20:00,87.1,0.0,29.91,North,0,2.0,8.0,0,0.00,,,0.00,Weather View 32 v70,2013-07-28 15:20:00,
2013-07-28 11:25:00,87.8,0.0,29.90,West,270,2.0,8.0,0,0.00,,,0.00,Weather View 32 v70,2013-07-28 15:25:00,
2013-07-28 11:30:00,87.1,0.0,29.92,West,270,1.0,9.0,0,0.00,,,0.00,Weather View 32 v70,2013-07-28 15:30:00,
2013-07-28 11:40:00,85.6,0.0,29.91,West,270,0.0,9.0,0,0.00,,,0.00,Weather View 32 v70,2013-07-28 15:40:00,
2013-07-28 11:45:00,83.7,0.0,29.91,North,0,3.0,9.0,0,0.00,,,0.00,Weather View 32 v70,2013-07-28 15:45:00,
2013-07-28 11:50:00,82.8,0.0,29.92,West,270,0.0,9.0,0,0.00,,,0.00,Weather View 32 v70,2013-07-28 15:50:00,
2013-07-28 12:00:00,83.7,0.0,29.92,SE,135,4.0,9.0,0,0.00,,,0.00,Weather View 32 v70,2013-07-28 16:00:00,
2013-07-28 12:05:00,87.1,0.0,29.92,North,0,3.0,9.0,0,0.00,,,0.00,Weather View 32 v70,2013-07-28 16:05:00,
2013-07-28 12:10:00,88.5,0.0,29.91,West,270,0.0,9.0,0,0.00,,,0.00,Weather View 32 v70,2013-07-28 16:10:00,
2013-07-28 12:15:00,87.1,0.0,29.97,WNW,293,0.0,9.0,0,0.00,,,0.00,Weather View 32 v70,2013-07-28 16:15:00,
2013-07-28 12:20:00,86.0,0.0,29.93,West,270,0.0,9.0,0,0.00,,,0.00,Weather View 32 v70,2013-07-28 16:20:00,
2013-07-28 12:30:00,85.6,0.0,29.90,West,270,0.0,7.0,0,0.00,,,0.00,Weather View 32 v70,2013-07-28 16:30:00,
2013-07-28 12:40:00,86.7,0.0,29.94,WNW,293,0.0,6.0,0,0.00,,,0.00,Weather View 32 v70,2013-07-28 16:40:00,
2013-07-28 12:47:00,87.1,0.0,29.91,West,270,1.0,6.0,0,0.00,,,0.00,Weather View 32 v70,2013-07-28 16:47:00,
2013-07-28 12:55:00,88.7,0.0,29.93,WNW,293,2.0,6.0,0,0.00,,,0.00,Weather View 32 v70,2013-07-28 16:55:00,
2013-07-28 13:05:00,88.7,0.0,29.93,WNW,293,0.0,6.0,0,0.00,,,0.00,Weather View 32 v70,2013-07-28 17:05:00,
2013-07-28 13:10:00,90.1,0.0,29.91,WNW,293,0.0,8.0,0,0.00,,,0.00,Weather View 32 v70,2013-07-28 17:10:00,
2013-07-28 13:15:00,90.3,0.0,29.92,SE,135,3.0,8.0,0,0.00,,,0.00,Weather View 32 v70,2013-07-28 17:15:00,
2013-07-28 13:20:00,90.1,0.0,29.92,SE,135,1.0,8.0,0,0.00,,,0.00,Weather View 32 v70,2013-07-28 17:20:00,
2013-07-28 13:25:00,90.1,0.0,29.90,North,0,5.0,8.0,0,0.00,,,0.00,Weather View 32 v70,2013-07-28 17:25:00,
2013-07-28 13:30:00,88.3,0.0,29.91,WNW,293,0.0,8.0,0,0.00,,,0.00,Weather View 32 v70,2013-07-28 17:30:00,
2013-07-28 13:40:00,89.4,0.0,29.89,North,0,4.0,10.0,0,0.00,,,0.00,Weather View 32 v70,2013-07-28 17:40:00,
2013-07-28 13:45:00,90.7,0.0,29.89,WNW,293,1.0,10.0,0,0.00,,,0.00,Weather View 32 v70,2013-07-28 17:45:00,
2013-07-28 13:50:00,90.7,0.0,29.89,WNW,293,1.0,10.0,0,0.00,,,0.00,Weather View 32 v70,2013-07-28 17:50:00,
2013-07-28 13:55:00,88.9,0.0,29.96,WNW,293,0.0,10.0,0,0.00,,,0.00,Weather View 32 v70,2013-07-28 17:55:00,
2013-07-28 14:05:00,89.1,0.0,29.91,SE,135,4.0,10.0,0,0.00,,,0.00,Weather View 32 v70,2013-07-28 18:05:00,
2013-07-28 14:20:00,89.1,0.0,29.90,North,0,2.0,10.0,0,0.00,,,0.00,Weather View 32 v70,2013-07-28 18:20:00,
2013-07-28 14:25:00,89.8,0.0,29.90,SE,135,3.0,10.0,0,0.00,,,0.00,Weather View 32 v70,2013-07-28 18:25:00,
2013-07-28 14:35:00,89.1,0.0,29.94,WNW,293,1.0,10.0,0,0.00,,,0.00,Weather View 32 v70,2013-07-28 18:35:00,
2013-07-28 14:40:00,89.8,0.0,29.89,West,270,2.0,9.0,0,0.00,,,0.00,Weather View 32 v70,2013-07-28 18:40:00,
2013-07-28 14:45:00,90.1,0.0,29.95,North,0,4.0,9.0,0,0.00,,,0.00,Weather View 32 v70,2013-07-28 18:45:00,
2013-07-28 14:50:00,90.3,0.0,29.89,West,270,0.0,9.0,0,0.00,,,0.00,Weather View 32 v70,2013-07-28 18:50:00,
2013-07-28 14:55:00,90.3,0.0,29.89,North,0,4.0,9.0,0,0.00,,,0.00,Weather View 32 v70,2013-07-28 18:55:00,
2013-07-28 15:00:00,90.9,0.0,29.89,West,270,2.0,9.0,0,0.00,,,0.00,Weather View 32 v70,2013-07-28 19:00:00,
2013-07-28 15:05:00,90.5,0.0,29.89,North,0,2.0,9.0,0,0.00,,,0.00,Weather View 32 v70,2013-07-28 19:05:00,
2013-07-28 15:10:00,91.0,0.0,29.89,West,270,2.0,9.0,0,0.00,,,0.00,Weather View 32 v70,2013-07-28 19:10:00,
2013-07-28 15:15:00,90.9,0.0,29.91,WNW,293,1.0,7.0,0,0.00,,,0.00,Weather View 32 v70,2013-07-28 19:15:00,
2013-07-28 15:20:00,90.3,0.0,29.90,West,270,2.0,7.0,0,0.00,,,0.00,Weather View 32 v70,2013-07-28 19:20:00,
2013-07-28 15:25:00,90.7,0.0,29.87,North,0,3.0,8.0,0,0.00,,,0.00,Weather View 32 v70,2013-07-28 19:25:00,
2013-07-28 15:35:00,89.4,0.0,29.91,WNW,293,0.0,8.0,0,0.00,,,0.00,Weather View 32 v70,2013-07-28 19:35:00,
2013-07-28 15:40:00,89.8,0.0,29.87,West,270,2.0,9.0,0,0.00,,,0.00,Weather View 32 v70,2013-07-28 19:40:00,
2013-07-28 15:45:00,89.4,0.0,29.89,WNW,293,0.0,9.0,0,0.00,,,0.00,Weather View 32 v70,2013-07-28 19:45:00,
2013-07-28 15:50:00,89.4,0.0,29.92,WNW,293,0.0,9.0,0,0.00,,,0.00,Weather View 32 v70,2013-07-28 19:50:00,
2013-07-28 15:55:00,90.0,0.0,29.89,WNW,293,1.0,9.0,0,0.00,,,0.00,Weather View 32 v70,2013-07-28 19:55:00,
2013-07-28 16:05:00,88.7,0.0,29.87,North,0,3.0,9.0,0,0.00,,,0.00,Weather View 32 v70,2013-07-28 20:05:00,
2013-07-28 16:10:00,88.7,0.0,29.87,West,270,0.0,9.0,0,0.00,,,0.00,Weather View 32 v70,2013-07-28 20:10:00,
2013-07-28 16:15:00,88.9,0.0,29.88,West,270,0.0,9.0,0,0.00,,,0.00,Weather View 32 v70,2013-07-28 20:15:00,
2013-07-28 16:25:00,88.9,0.0,29.87,North,0,6.0,9.0,0,0.00,,,0.00,Weather View 32 v70,2013-07-28 20:25:00,
2013-07-28 16:30:00,89.1,0.0,29.87,West,270,0.0,9.0,0,0.00,,,0.00,Weather View 32 v70,2013-07-28 20:30:00,
2013-07-28 16:35:00,88.0,0.0,29.88,North,0,6.0,9.0,0,0.00,,,0.00,Weather View 32 v70,2013-07-28 20:35:00,
2013-07-28 16:40:00,87.8,0.0,29.88,West,270,0.0,9.0,0,0.00,,,0.00,Weather View 32 v70,2013-07-28 20:40:00,
2013-07-28 16:45:00,88.0,0.0,29.87,West,270,0.0,9.0,0,0.00,,,0.00,Weather View 32 v70,2013-07-28 20:45:00,
2013-07-28 16:50:00,88.3,0.0,29.88,North,0,3.0,9.0,0,0.00,,,0.00,Weather View 32 v70,2013-07-28 20:50:00,
2013-07-28 17:00:00,88.7,0.0,29.87,North,0,3.0,9.0,0,0.00,,,0.00,Weather View 32 v70,2013-07-28 21:00:00,
2013-07-28 17:05:00,88.5,0.0,29.88,West,270,2.0,9.0,0,0.00,,,0.00,Weather View 32 v70,2013-07-28 21:05:00,
2013-07-28 17:10:00,88.2,0.0,29.87,North,0,5.0,9.0,0,0.00,,,0.00,Weather View 32 v70,2013-07-28 21:10:00,
2013-07-28 17:15:00,87.6,0.0,29.87,West,270,0.0,9.0,0,0.00,,,0.00,Weather View 32 v70,2013-07-28 21:15:00,
2013-07-28 17:25:00,87.4,0.0,29.88,West,270,1.0,9.0,0,0.00,,,0.00,Weather View 32 v70,2013-07-28 21:25:00,
2013-07-28 17:30:00,87.3,0.0,29.88,North,0,7.0,9.0,0,0.00,,,0.00,Weather View 32 v70,2013-07-28 21:30:00,
2013-07-28 17:35:00,87.1,0.0,29.89,West,270,3.0,9.0,0,0.00,,,0.00,Weather View 32 v70,2013-07-28 21:35:00,
2013-07-28 17:40:00,86.7,0.0,29.87,West,270,2.0,9.0,0,0.00,,,0.00,Weather View 32 v70,2013-07-28 21:40:00,
2013-07-28 17:45:00,86.5,0.0,29.87,West,270,2.0,9.0,0,0.00,,,0.00,Weather View 32 v70,2013-07-28 21:45:00,
2013-07-28 17:50:00,86.2,0.0,29.88,North,0,0.0,9.0,0,0.00,,,0.00,Weather View 32 v70,2013-07-28 21:50:00,
2013-07-28 18:00:00,85.8,0.0,29.87,North,0,3.0,9.0,0,0.00,,,0.00,Weather View 32 v70,2013-07-28 22:00:00,
2013-07-28 18:05:00,85.6,0.0,29.87,North,0,3.0,9.0,0,0.00,,,0.00,Weather View 32 v70,2013-07-28 22:05:00,
2013-07-28 18:10:00,85.3,0.0,29.88,West,270,0.0,9.0,0,0.00,,,0.00,Weather View 32 v70,2013-07-28 22:10:00,
2013-07-28 18:15:00,85.1,0.0,29.88,West,270,0.0,9.0,0,0.00,,,0.00,Weather View 32 v70,2013-07-28 22:15:00,
2013-07-28 18:20:00,84.7,0.0,29.87,WNW,293,0.0,9.0,0,0.00,,,0.00,Weather View 32 v70,2013-07-28 22:20:00,
2013-07-28 18:35:00,83.3,0.0,29.88,West,270,0.0,9.0,0,0.00,,,0.00,Weather View 32 v70,2013-07-28 22:35:00,
2013-07-28 18:40:00,82.9,0.0,29.88,West,270,0.0,9.0,0,0.00,,,0.00,Weather View 32 v70,2013-07-28 22:40:00,
2013-07-28 18:45:00,82.8,0.0,29.87,West,270,0.0,9.0,0,0.00,,,0.00,Weather View 32 v70,2013-07-28 22:45:00,
2013-07-28 18:50:00,82.6,0.0,29.89,North,0,0.0,9.0,0,0.00,,,0.00,Weather View 32 v70,2013-07-28 22:50:00,
2013-07-28 18:55:00,82.4,0.0,29.88,West,270,0.0,9.0,0,0.00,,,0.00,Weather View 32 v70,2013-07-28 22:55:00,
2013-07-28 19:00:00,82.4,0.0,29.89,North,0,3.0,8.0,0,0.00,,,0.00,Weather View 32 v70,2013-07-28 23:00:00,
2013-07-28 19:05:00,81.9,0.0,29.87,West,270,0.0,8.0,0,0.00,,,0.00,Weather View 32 v70,2013-07-28 23:05:00,
2013-07-28 19:10:00,81.5,0.0,29.89,North,0,4.0,8.0,0,0.00,,,0.00,Weather View 32 v70,2013-07-28 23:10:00,
2013-07-28 19:15:00,81.5,0.0,29.88,West,270,0.0,8.0,0,0.00,,,0.00,Weather View 32 v70,2013-07-28 23:15:00,
2013-07-28 19:20:00,81.3,0.0,29.90,West,270,0.0,8.0,0,0.00,,,0.00,Weather View 32 v70,2013-07-28 23:20:00,
2013-07-28 19:25:00,81.1,0.0,29.93,West,270,0.0,8.0,0,0.00,,,0.00,Weather View 32 v70,2013-07-28 23:25:00,
2013-07-28 19:30:00,81.0,0.0,29.91,West,270,0.0,8.0,0,0.00,,,0.00,Weather View 32 v70,2013-07-28 23:30:00,
2013-07-28 19:35:00,80.6,0.0,29.90,West,270,1.0,8.0,0,0.00,,,0.00,Weather View 32 v70,2013-07-28 23:35:00,
2013-07-28 19:40:00,80.4,0.0,29.91,West,270,0.0,9.0,0,0.00,,,0.00,Weather View 32 v70,2013-07-28 23:40:00,
2013-07-28 19:50:00,79.7,0.0,29.91,West,270,3.0,9.0,0,0.00,,,0.00,Weather View 32 v70,2013-07-28 23:50:00,
2013-07-28 19:55:00,79.7,0.0,29.91,North,0,1.0,9.0,0,0.00,,,0.00,Weather View 32 v70,2013-07-28 23:55:00,
2013-07-28 20:00:00,79.5,0.0,29.91,West,270,1.0,9.0,0,0.00,,,0.00,Weather View 32 v70,2013-07-29 00:00:00,
2013-07-28 20:10:00,78.6,0.0,29.90,West,270,0.0,9.0,0,0.00,,,0.00,Weather View 32 v70,2013-07-29 00:10:00,
2013-07-28 20:15:00,78.1,0.0,29.92,West,270,0.0,9.0,0,0.00,,,0.00,Weather View 32 v70,2013-07-29 00:15:00,
2013-07-28 20:20:00,77.7,0.0,29.91,West,270,0.0,9.0,0,0.00,,,0.00,Weather View 32 v70,2013-07-29 00:20:00,
2013-07-28 20:25:00,77.4,0.0,29.91,West,270,0.0,9.0,0,0.00,,,0.00,Weather View 32 v70,2013-07-29 00:25:00,
2013-07-28 20:30:00,77.2,0.0,29.91,West,270,0.0,9.0,0,0.00,,,0.00,Weather View 32 v70,2013-07-29 00:30:00,
2013-07-28 20:35:00,76.8,0.0,29.92,West,270,0.0,9.0,0,0.00,,,0.00,Weather View 32 v70,2013-07-29 00:35:00,
2013-07-28 20:40:00,76.6,0.0,29.92,North,0,1.0,7.0,0,0.00,,,0.00,Weather View 32 v70,2013-07-29 00:40:00,
2013-07-28 20:42:00,76.3,0.0,29.90,West,270,0.0,6.0,0,0.00,,,0.00,Weather View 32 v70,2013-07-29 00:42:00,